Theta_e
320 320 322 331 335 332 336 338 346 346 345 347 345 343 341 340 340 340 341 342 342 343 342 341 343 341 341 341 342 334 341 341 340 340 340 340 342 341 342 336 340 342 342 343
316 320 321 322 331 335 336 339 344 341 344 345 346 346 342 340 340 339 340 341 342 342 342 341 341 342 341 341 342 337 336 339 341 341 342 342 341 340 339 342 340 341 341 342
316 320 320 322 328 334 335 338 342 343 348 343 346 345 345 343 341 339 339 340 341 341 341 341 341 341 342 342 342 339 339 336 337 341 341 342 341 342 341 342 344 343 342 340
316 317 319 319 322 331 331 334 338 348 345 345 342 348 338 341 341 340 339 339 340 341 340 340 340 341 342 342 341 341 342 342 340 340 340 341 340 342 341 342 340 343 341 340
317 318 319 319 319 329 327 332 337 346 343 341 344 346 339 337 338 340 340 339 339 343 340 340 340 340 342 342 342 342 340 342 343 342 341 340 340 341 341 341 340 342 340 339
316 320 319 319 320 326 329 335 335 334 340 342 340 345 341 339 339 337 338 340 339 340 343 341 341 340 342 342 342 342 341 341 342 342 341 340 341 339 340 341 341 340 340 342
319 319 318 319 319 319 326 329 335 343 342 341 335 342 339 335 334 338 335 340 340 340 342 342 341 341 342 342 342 342 342 341 341 341 341 341 341 340 340 340 340 342 341 342
318 319 318 318 319 317 327 324 333 333 335 332 330 337 334 335 337 336 339 338 340 340 340 341 341 341 341 342 342 342 342 343 342 342 342 342 343 343 341 342 342 342 341 341
316 318 318 318 318 318 320 320 318 324 327 331 332 332 330 336 337 337 337 341 341 341 340 340 342 342 341 342 342 342 343 343 344 344 343 344 344 344 341 342 342 341 343 342
317 318 318 320 319 320 319 319 326 323 330 333 334 336 333 335 340 337 340 340 342 342 342 342 343 342 342 343 343 343 343 344 345 344 344 344 345 346 341 343 343 341 341 342
314 317 319 320 319 319 322 323 317 321 324 329 331 332 329 332 335 339 337 340 341 341 343 343 343 343 342 342 343 342 341 343 344 345 344 345 346 346 344 340 344 342 341 343
315 313 317 318 318 319 321 319 318 321 323 327 327 332 333 332 331 333 337 339 340 341 343 343 343 343 343 342 343 342 340 341 342 345 345 342 343 346 347 341 341 343 341 344
315 316 318 318 318 322 323 318 315 318 323 331 331 329 331 336 338 336 338 340 341 341 343 344 344 344 343 343 343 342 341 340 341 344 342 340 343 344 346 340 339 341 340 341
318 313 318 322 319 320 329 326 320 322 325 325 329 330 332 338 339 339 340 341 343 342 343 344 345 345 345 345 344 343 341 340 342 342 340 340 343 344 345 346 343 340 342 343
316 318 315 317 319 326 327 329 322 326 323 329 327 330 330 333 337 338 340 342 342 342 343 343 344 343 343 344 344 344 344 342 342 341 341 342 338 341 343 344 345 345 343 343
317 322 318 326 321 326 329 328 325 327 325 327 326 329 327 333 337 338 340 340 340 341 342 342 343 344 342 343 344 344 344 344 343 342 343 343 343 344 341 343 342 341 344 345
321 323 324 328 328 329 330 327 327 326 324 326 328 327 332 336 337 338 338 339 343 343 344 344 344 338 336 337 339 341 344 345 345 344 345 345 344 345 346 345 342 341 341 341
323 324 324 326 329 333 327 327 326 328 327 325 327 328 332 335 340 340 338 342 344 345 345 345 344 341 341 338 338 342 344 344 344 344 345 345 346 346 347 346 344 343 343 343
319 324 326 330 331 328 329 330 329 329 329 325 327 328 332 337 339 339 337 343 344 344 344 344 342 344 340 332 333 335 337 338 336 336 337 338 339 339 339 339 340 340 342 340
322 319 328 329 331 333 328 328 328 325 329 325 327 329 333 338 340 338 340 343 345 344 341 345 345 343 339 340 342 343 339 336 333 336 332 332 333 331 333 336 339 341 339 340
322 321 327 330 330 328 325 327 327 330 330 326 332 331 334 334 337 337 341 341 343 344 344 346 347 343 344 343 340 333 332 332 334 335 335 336 336 333 336 333 330 332 337 342
322 322 324 326 330 332 325 328 329 326 326 327 332 333 333 334 335 335 339 342 342 344 345 347 346 345 339 334 334 334 334 335 336 337 336 337 335 335 334 330 330 330 336 339
327 323 322 323 326 324 330 328 329 329 327 329 330 334 333 333 335 336 338 341 341 343 346 347 345 338 334 333 333 334 335 337 338 339 339 338 337 336 334 333 331 332 336 342
325 325 327 327 322 329 330 331 331 330 329 330 331 333 335 334 335 338 339 340 342 346 345 343 336 333 330 329 326 332 337 338 339 339 340 339 338 336 334 333 332 329 337 338
324 323 327 327 328 328 328 327 330 330 331 334 334 334 336 336 338 339 340 343 344 343 339 335 333 330 328 321 321 325 327 328 335 338 339 336 334 333 330 329 333 337 334 336
323 322 327 327 329 327 327 327 330 329 330 330 333 334 336 337 338 339 341 341 340 338 335 332 330 329 319 318 317 321 328 333 335 335 335 334 333 332 332 329 335 338 337 333
Wind_Speed
2 3 9 8 7 4 2 3 4 2 5 6 9 6 10 16 22 15 19 25 19 24 28 25 24 20 18 16 14 15 16 18 18 18 15 13 9 10 6 8 11 9 7 3
5 8 4 7 6 5 4 4 3 2 1 4 3 12 7 10 19 26 23 27 18 23 26 27 25 24 21 18 17 17 18 17 17 17 12 12 12 10 7 8 9 8 6 4
7 6 6 6 4 4 4 6 5 3 4 0 3 6 6 6 15 24 27 29 22 26 29 28 28 28 24 23 20 18 18 15 17 17 14 12 14 11 8 9 8 8 6 3
6 7 7 3 5 7 7 9 7 9 4 2 2 5 6 5 7 11 22 28 26 29 29 28 29 30 29 25 22 19 18 17 16 15 15 14 15 12 13 10 9 9 6 5
9 5 4 5 8 9 10 7 8 4 4 3 2 1 7 2 6 14 19 26 31 29 35 31 32 32 30 25 24 23 20 18 18 16 13 14 16 15 15 12 12 11 7 7
8 2 5 8 5 10 6 7 8 6 3 2 2 6 7 4 6 6 11 26 36 35 30 32 33 32 32 28 25 25 24 21 18 19 16 13 15 12 17 15 13 13 11 10
3 5 4 5 2 3 5 6 4 3 2 6 1 4 10 4 7 8 13 25 35 36 34 30 32 37 35 33 28 28 25 25 21 20 19 16 15 16 17 16 16 15 13 12
5 6 7 5 8 9 7 7 6 6 4 5 4 5 6 1 6 6 11 22 29 34 37 32 31 34 38 35 31 30 28 24 24 22 21 18 17 17 16 18 15 18 16 14
4 6 4 6 4 9 4 3 4 7 2 2 2 7 8 3 2 4 8 16 26 32 37 36 33 34 36 33 33 31 29 26 26 22 20 19 17 17 15 14 18 16 16 16
5 3 5 2 5 3 7 7 3 2 4 3 4 5 5 2 5 4 5 15 19 26 30 33 34 35 35 31 29 25 25 22 20 22 22 19 16 16 15 17 17 17 16 17
6 4 6 2 4 9 3 2 6 5 4 5 1 6 7 6 6 6 9 11 15 18 25 30 31 35 30 30 31 27 26 24 22 22 22 21 19 17 16 19 18 15 14 14
9 5 5 12 4 3 3 5 6 5 5 1 3 6 1 4 5 8 14 8 8 10 15 21 24 30 32 33 31 29 25 27 24 22 22 20 18 19 18 19 20 19 17 17
7 4 3 10 5 3 4 3 5 6 4 6 6 6 2 1 4 10 12 7 9 10 12 13 16 20 27 30 28 26 19 16 23 28 25 21 19 17 17 18 19 19 21 22
13 3 8 11 10 5 4 6 4 6 5 6 6 4 6 4 5 6 9 8 7 11 13 11 13 14 16 20 24 24 23 17 9 11 13 18 25 24 22 19 21 22 21 22
5 7 6 7 6 5 7 8 9 6 7 6 5 8 8 7 7 13 13 12 11 12 13 12 11 10 12 13 15 17 22 24 17 17 14 9 9 13 17 17 19 22 21 23
3 3 5 4 4 7 6 9 9 3 4 2 4 6 7 7 8 9 14 14 14 14 14 12 10 7 6 7 7 9 10 14 20 23 25 24 25 21 19 17 21 20 23 21
0 5 1 3 4 5 1 10 11 6 5 7 5 10 6 4 10 19 19 20 20 19 17 15 12 10 8 7 6 6 6 9 11 16 17 20 21 25 26 24 21 16 18 23
3 3 3 2 3 2 6 2 7 9 8 7 3 6 13 13 25 25 25 27 22 21 21 19 15 12 7 4 7 9 9 9 9 11 12 14 16 19 21 21 23 24 24 21
11 3 3 5 3 5 8 5 7 7 8 8 8 4 7 15 17 12 25 27 26 24 20 19 17 13 7 6 7 4 2 3 3 4 5 6 10 12 13 14 15 18 17 18
6 5 7 4 6 12 7 3 3 4 3 6 9 5 13 19 5 6 29 29 25 21 20 21 19 14 10 9 5 2 2 3 3 2 2 4 7 10 14 15 15 14 16 18
3 2 8 5 4 5 7 5 6 6 7 8 12 19 22 7 16 26 24 27 26 24 22 22 19 14 9 6 5 4 5 6 2 4 4 6 8 12 12 14 15 15 16 17
5 6 5 4 4 9 6 3 6 5 5 8 16 24 30 21 20 12 24 29 27 27 23 24 18 12 7 5 8 8 8 6 8 9 8 7 8 9 11 15 16 16 16 17
2 3 3 6 7 4 11 2 6 10 9 12 14 22 27 24 21 19 23 26 26 25 26 23 15 10 7 8 11 13 11 12 13 14 13 12 11 12 15 17 18 18 16 15
4 3 1 4 1 2 16 6 12 13 13 13 13 21 26 29 23 25 25 26 26 28 25 19 14 10 7 8 11 10 11 14 15 16 15 14 14 17 21 21 17 15 14 16
3 10 3 3 4 2 2 20 17 14 10 6 11 19 25 27 29 30 28 29 31 29 22 18 15 10 7 10 11 11 10 10 10 12 13 15 18 21 22 17 15 14 13 15
5 4 2 3 4 1 5 20 14 20 20 10 3 14 26 28 32 32 33 32 29 24 24 21 16 10 7 6 5 7 8 8 9 12 14 16 17 16 16 13 14 13 15 17
Wind_Direction
99 103 225 184 192 199 220 204 238 254 181 168 211 232 222 228 226 231 223 220 249 237 229 225 226 220 209 205 204 181 173 163 170 174 173 174 168 160 150 164 169 163 154 130
33 228 156 166 177 216 243 235 228 340 353 181 220 249 222 194 216 225 229 230 233 231 222 221 224 217 216 209 202 193 183 185 178 183 182 185 177 170 162 148 155 158 158 174
173 251 144 159 164 182 243 217 179 156 102 281 292 280 221 211 215 215 225 233 234 224 220 221 220 215 215 214 204 199 190 185 189 189 199 196 192 190 184 175 168 157 173 208
231 256 249 159 223 150 253 209 229 132 115 248 28 280 295 217 222 220 215 224 230 217 219 221 215 217 218 215 209 204 201 195 192 195 204 203 204 200 200 198 193 192 202 223
237 186 152 194 219 165 242 189 194 124 97 42 164 55 267 94 245 230 221 216 222 217 217 220 221 220 219 217 210 207 205 206 209 209 207 211 216 224 212 209 204 204 225 231
226 215 167 217 166 185 83 77 47 54 69 344 200 156 281 205 206 244 202 209 216 218 218 219 224 220 220 217 215 214 212 210 214 216 216 216 216 228 217 220 219 226 234 249
267 224 238 177 158 91 94 74 26 18 28 226 201 120 249 251 245 232 205 201 212 216 215 215 221 216 222 219 217 216 217 214 211 216 220 224 226 236 236 236 235 236 234 241
187 301 186 187 187 180 176 156 152 190 194 244 131 238 252 285 320 257 225 215 208 213 214 216 220 223 221 221 221 219 220 221 218 218 224 227 231 237 241 247 239 241 233 235
170 279 256 204 152 135 214 166 191 102 357 51 245 288 297 128 29 142 165 188 201 211 212 216 220 221 220 223 223 225 226 232 228 227 229 232 239 241 242 241 240 233 235 238
209 278 227 242 125 45 163 156 81 13 141 223 294 281 242 263 217 144 171 183 202 213 210 215 218 218 218 221 220 223 232 232 237 236 235 235 243 251 249 238 236 237 246 243
144 140 286 357 187 180 142 154 59 112 122 158 236 272 220 203 199 197 225 187 193 207 213 216 217 220 213 229 229 237 233 234 238 237 234 240 243 249 254 243 242 237 240 239
201 158 237 230 221 217 206 156 137 128 218 101 156 270 160 212 208 218 238 192 197 205 207 214 219 219 220 232 236 240 233 236 238 235 232 241 241 241 249 248 248 246 245 243
183 215 275 314 354 31 202 166 118 106 93 188 140 260 112 102 128 199 228 190 194 196 198 204 216 220 222 227 233 230 227 227 242 243 245 241 238 242 247 248 250 252 248 246
152 148 177 222 216 152 185 159 153 125 128 169 221 259 283 196 158 184 198 184 181 192 195 207 210 211 219 227 230 232 225 221 239 226 240 247 238 246 253 253 252 252 253 251
146 206 186 244 231 171 183 175 168 172 163 154 228 206 239 238 195 191 192 177 184 193 204 201 208 211 222 229 232 236 235 238 239 232 236 250 255 253 248 258 262 259 254 253
190 225 166 278 206 193 185 190 159 150 135 131 141 249 196 186 165 171 181 185 199 199 195 193 208 204 193 201 229 239 241 239 240 246 256 264 262 265 260 264 287 260 254 263
206 157 152 259 319 141 34 187 181 175 170 149 158 225 168 156 173 191 183 189 198 201 199 192 185 167 153 169 190 210 231 240 250 250 262 261 266 269 273 270 279 272 272 263
274 304 85 24 347 272 245 120 181 179 187 200 246 199 197 193 191 197 196 193 201 199 194 184 178 165 164 196 200 197 210 232 249 258 260 266 270 273 276 274 271 273 274 279
202 204 82 168 309 295 308 170 153 164 236 200 218 189 144 139 155 199 203 202 199 196 194 190 181 172 167 167 162 166 179 188 225 250 254 264 272 278 279 284 282 288 271 276
153 209 142 144 142 247 245 295 171 99 272 225 183 196 147 139 144 227 204 203 205 204 200 192 181 179 175 170 180 195 261 274 302 243 291 317 309 293 285 286 283 285 269 272
137 280 177 171 129 281 247 221 102 117 230 193 199 190 167 160 193 218 194 197 202 204 201 193 188 185 179 186 212 247 287 311 313 224 259 306 308 308 293 297 294 281 276 278
179 169 178 117 151 230 10 48 166 265 252 199 169 187 188 191 191 195 185 192 194 199 193 190 185 178 182 234 258 276 282 285 260 254 265 273 291 307 302 310 301 285 280 280
300 192 218 199 194 129 314 245 12 356 294 272 207 192 199 195 189 174 181 186 190 194 184 179 182 187 229 254 269 270 277 265 260 257 262 264 279 291 299 307 310 291 282 283
310 341 284 22 313 18 55 44 18 8 328 279 250 211 197 204 194 178 170 175 178 172 176 179 186 204 228 263 280 270 256 257 260 263 260 268 282 291 295 296 293 295 280 281
246 324 305 290 286 156 150 12 5 5 9 306 239 218 201 195 179 172 171 168 167 170 176 185 193 204 247 275 273 268 267 257 251 252 262 276 288 294 295 289 283 276 285 279
190 261 324 270 295 40 296 352 14 1 357 355 205 207 195 187 177 178 172 171 173 178 181 187 195 212 244 260 271 268 265 258 253 259 269 282 291 293 297 296 281 272 267 275